Retour au catalogue

COSMOS 1285 DEB

LostHEO
NORAD 25841·DEBRIS·🇷🇺 Russia

Lancé Aug 4, 1981 depuis Plesetsk Cosmodrome

Loading…

Prochains Passages (prochaines 24 heures)

TLE

PériméSource: Space-Track

Époque: Aug 21, 2011, 17:47 UTC

1 25841U 81071K   11233.74123447 -.00000670 +00000-0 +10000-3 0  9997
2 25841 067.1462 049.8124 6054066 138.5354 287.4894 01.98069629102894

Suivez COSMOS 1285 DEB en temps réel avec AllMySat

Download on the App Store